Back to catalog

SL-12 DEB

AliveHEO
NORAD 44588·DEBRIS·🇷🇺 Russia

Launched May 20, 1999 from Baikonur Cosmodrome

Loading…

Next Passes (next 24 hours)

TLE

FreshSource: Space-Track

Epoch: Sep 14, 2026, 04:14 UTC

1 44588U 99027E   26257.17693072 -.00000099  00000-0  00000-0 0  9992
2 44588   7.4291 115.6098 3173177 170.4546 356.1424  1.46031417 68354

Track SL-12 DEB in real time with AllMySat

Download on the App Store